This demonstration page uses our WeatherBlox Daily Observations layout. Learn more.

Left ArrowRight Arrow

39.08367, -84.50855

Hourly Observations for January 21, 2021

Temp ( °F °C ) Dew Point ( °F °C ) Humidity (%) Winds ( mph kmh ) Pressure ( in mb ) Visibility ( mi km ) Precip ( " mm )
12:53 am 00:53 Cloudy 36 2.2 17 -8.3 46 46 SSW 9 15 29.97 1015 10 16.0934 0 0
1:53 am 01:53 Cloudy 37 2.8 18 -7.8 46 46 SSW 10 17 29.94 1014 10 16.0934 0 0
2:53 am 02:53 Clear 35 1.7 19 -7.2 52 52 SSW 9 15 29.92 1013 10 16.0934 0 0
3:53 am 03:53 Clear 33 0.6 21 -6.1 61 61 SW 9 15 29.91 1013 10 16.0934 0 0
4:53 am 04:53 Clear 35 1.7 23 -5 61 61 SW 10 17 29.9 1013 10 16.0934 0 0
5:53 am 05:53 Clear 34 1.1 26 -3.3 73 73 SW 9 15 29.91 1013 10 16.0934 0 0
6:53 am 06:53 Clear 36 2.2 29 -1.7 76 76 SW 9 15 29.91 1013 10 16.0934 0 0
7:53 am 07:53 Mostly Sunny 35 1.7 30 -1.1 82 82 SW 7 11 29.91 1013 10 16.0934 0 0
8:53 am 08:53 Mostly Sunny 36 2.2 31 -0.6 82 82 SW 7 11 29.91 1013 10 16.0934 0 0
9:53 am 09:53 Partly Cloudy 41 5 32 0 70 70 WSW 14 22 29.91 1013 10 16.0934 0 0
10:53 am 10:53 Partly Cloudy 43 6.1 33 0.6 68 68 WSW 14 22 29.91 1013 10 16.0934 0 0
11:53 am 11:53 Sunny 46 7.8 32 0 58 58 WSW 10 17 29.88 1012 10 16.0934 0 0
12:53 pm 12:53 Sunny 49 9.4 31 -0.6 50 50 WSW 13 20 29.85 1011 10 16.0934 0 0
1:53 pm 13:53 Sunny 51 10.6 27 -2.8 39 39 WSW 13 20 29.82 1010 10 16.0934 0 0
2:53 pm 14:53 Sunny 53 11.7 24 -4.4 32 32 W 15 24 29.82 1010 10 16.0934 0 0
3:53 pm 15:53 Sunny 52 11.1 22 -5.6 31 31 W 15 24 29.83 1010 10 16.0934 0 0
4:53 pm 16:53 Sunny 50 10 23 -5 35 35 WSW 14 22 29.83 1010 10 16.0934 0 0
5:53 pm 17:53 Clear 44 6.7 21 -6.1 40 40 W 10 17 29.83 1010 10 16.0934 0 0
6:53 pm 18:53 Clear 38 3.3 20 -6.7 48 48 SW 7 11 29.85 1011 10 16.0934 0 0
7:53 pm 19:53 Clear 41 5 21 -6.1 45 45 SW 8 13 29.87 1012 10 16.0934 0 0
8:53 pm 20:53 Clear 41 5 22 -5.6 47 47 SW 9 15 29.87 1012 10 16.0934 0 0
9:53 pm 21:53 Clear 40 4.4 23 -5 51 51 SW 10 17 29.87 1012 10 16.0934 0 0
10:53 pm 22:53 Clear 39 3.9 23 -5 53 53 SW 9 15 29.88 1012 10 16.0934 0 0
11:53 pm 23:53 Clear 36 2.2 23 -5 59 59 SW 8 13 29.87 1012 10 16.0934 0 0

Powered by AerisWeather